Location: Keppel Henge
(44.7900°N, 80.9447°W)
Time: 08:05:32
(UTC-04:00)

Tiangong 2 - Pass Details

Date: 15 October 2017
Orbit: 388 x 391 km, 42.8° (Epoch: 22 October)

Event Time Altitude Azimuth Distance (km) Brightness Sun altitude
Exits shadow 07:08:08 - 268° (W) 1,558 3.5 -6.4°
Reaches altitude 10° 07:08:29 10° 267° (W) 1,421 3.3 -6.3°
Maximum altitude 07:11:32 42° 195° (SSW) 574 1.9 -5.8°
Drops below altitude 10° 07:14:35 10° 123° (ESE) 1,419 5.2 -5.2°
Sets 07:16:43 0° 116° (ESE) 2,273 6.7 -4.8°
